一网星座-0216星 (ONEWEB-0216 )

导读 | 豆包AI

ONEWEB-0216是英国OneWeb星座中的一颗低轨通信卫星,于2021年5月28日发射入轨,属于OneWeb一期组网卫星。卫星重约147.5公斤,运行在1200公里近极地轨道,配备Ku/Ka波段通信天线,单星通信能力约7.5Gbps,支持高速互联网接入。它依托OneWeb全球星座布局,为偏远地区及海陆空用户提供低延迟宽带服务,设计寿命5年,符合空间碎片减缓规范,是OneWeb实现全球覆盖的重要组成部分。

基本信息
目录编号:
48801
目录名称:
ONEWEB-0216
国际标识:
2021-045AL
轨道中心:
EARTH
卫星名称:
一网星座-0216星
卫星全名:
一网星座-0216星 (ONEWEB-0216 )
卫星状态:
在轨 (已飞行1799 天)
发射日期:
2021-05-28 UTC
国别 :
英国 (GB)
星等 :
--
轨道信息
数据来源 国际轨道数据 AOE轨道数据
星历时间 2026-05-01T07:00:15+0800
5小时前
查看轨道信息
2026-04-26T12:00:00+0800
5天前
查看轨道信息
半长轴 7579.909km 7579.906km
偏心率 0.0001866 0.000256
轨道倾角 87.896° 87.894°
近地点辐角 98.869° 97.606°
升交点赤经 268.610° 269.567°
平近点角 261.265° 261.458°
近地点 1200.357km 1199.828km
远地点 1203.187km 1203.71km
周期 109.460分钟 109.460分钟
每日圈数 13.155484 13.155491
详细信息
平衡模式:
三轴稳定
覆盖范围:
全球
运营商:
一网卫星公司
运营商所在国:
英国
制造商(研发单位):
一网卫星公司
制造商所在国:
英国
使用方式:
暂无
卫星简介
OneWeb卫星网络由648颗重约125公斤的微型卫星组成,运行在1200公里的轨道上。 每颗卫星都能够提供至少每秒8千兆位的吞吐量,以使用其高吞吐量的Ku频段有效载荷为家庭和移动平台提供互联网接入。该卫星仍在工作。
2D轨道图
3D轨道图
轨道高度分析图
轨道倾角分析图
轨道综合分析图
查看轨道综合分析图